Location: Proctor
(47.8934°N, 114.3048°W)
Time: 09:28:27
(UTC+00:00)

Transit 4A - Visible Passes

Search period start: 12 May 2025 00:00
Search period end: 22 May 2025 00:00
Orbit: 864 x 977 km, 66.8° (Epoch: 11 May)

Date Brightness Start Highest point End Pass type
(mag) Time Alt. Az. Time Alt. Az. Time Alt. Az.
12 May 9.1 05:05:40 10° WSW 05:11:46 46° NW 05:17:47 10° NNE visible
12 May 10.7 06:55:41 10° WNW 06:59:45 17° NNW 07:03:46 10° NNE visible
12 May 11.0 08:45:56 10° NNW 08:48:50 13° N 08:51:41 10° NE visible
12 May 10.4 10:32:32 10° NNW 10:37:33 25° NNE 10:42:25 10° E visible
13 May 9.6 05:15:02 10° WSW 05:20:50 36° NW 05:26:33 10° NNE visible
13 May 10.9 07:05:35 10° NW 07:09:07 15° NNW 07:12:38 10° NNE visible
13 May 11.0 08:55:03 10° NNW 08:58:16 14° NNE 09:01:26 10° NE visible
13 May 10.0 10:41:18 10° NNW 10:46:43 31° NE 10:51:58 10° E visible
14 May 8.0 03:36:32 10° SSW 03:42:55 83° ESE 03:49:14 10° NE visible
14 May 10.1 05:24:33 10° W 05:29:58 28° NW 05:35:18 10° NNE visible
14 May 11.0 07:15:26 10° NW 07:18:32 14° N 07:21:37 10° NNE visible
14 May 10.9 09:04:00 10° NNW 09:07:40 16° NNE 09:11:15 10° NE visible
14 May 9.5 10:50:04 10° NNW 10:55:49 40° NE 11:01:22 10° ESE visible
15 May 8.3 03:45:23 10° SW 03:51:46 74° NW 03:58:04 10° NNE visible
15 May 10.4 05:34:13 10° W 05:39:10 23° NNW 05:44:03 10° NNE visible
15 May 11.1 07:25:10 10° NNW 07:27:58 13° N 07:30:46 10° NNE visible
15 May 10.8 09:12:51 10° NNW 09:17:01 18° NNE 09:21:05 10° ENE visible
15 May 8.9 10:58:51 10° NNW 11:04:50 52° NE 11:10:36 10° SE visible
16 May 8.9 03:54:27 10° SW 04:00:42 56° NW 04:06:53 10° NNE visible
16 May 10.7 05:44:01 10° WNW 05:48:26 19° NNW 05:52:49 10° NNE visible
16 May 11.1 07:34:40 10° NNW 07:37:26 13° N 07:40:09 10° NNE visible
16 May 10.5 09:21:39 10° NNW 09:26:18 22° NNE 09:30:50 10° ENE visible
16 May 8.3 11:07:39 10° NNW 11:13:47 70° NE 11:19:39 10° SE visible
17 May 9.4 04:03:41 10° WSW 04:09:43 43° NW 04:15:39 10° NNE visible
17 May 10.9 05:53:52 10° WNW 05:57:46 17° NNW 06:01:38 10° NNE visible
17 May 11.0 07:43:57 10° NNW 07:46:52 13° N 07:49:46 10° NE visible
17 May 10.1 09:30:25 10° NNW 09:35:31 26° NE 09:40:29 10° E visible
17 May 7.9 11:16:31 10° NW 11:22:38 86° WSW 11:28:32 10° SSE visible
18 May 9.9 04:13:06 10° WSW 04:18:47 33° NW 04:24:24 10° NNE visible
18 May 11.0 06:03:45 10° NW 06:07:09 15° NNW 06:10:31 10° NNE visible
18 May 10.9 07:53:00 10° NNW 07:56:18 14° NNE 07:59:32 10° NE visible
18 May 9.7 09:39:11 10° NNW 09:44:40 33° NE 09:49:59 10° ESE visible
19 May 10.4 04:22:39 10° W 04:27:56 27° NW 04:33:09 10° NNE visible
19 May 11.0 06:13:36 10° NW 06:16:35 13° N 06:19:32 10° NNE visible
19 May 10.8 08:01:55 10° NNW 08:05:41 16° NNE 08:09:22 10° ENE visible
19 May 9.2 09:47:57 10° NNW 09:53:45 42° NE 09:59:20 10° ESE visible
20 May 10.7 04:32:21 10° W 04:37:10 22° NNW 04:41:54 10° NNE visible
20 May 10.9 06:23:17 10° NNW 06:26:01 13° N 06:28:44 10° NNE visible
20 May 10.6 08:10:45 10° NNW 08:15:01 19° NNE 08:19:11 10° ENE visible
20 May 8.6 09:56:44 10° NNW 10:02:44 56° NE 10:08:32 10° SE visible
21 May 10.7 04:42:10 10° WNW 04:46:27 19° NNW 04:50:40 10° NNE visible
21 May 10.9 06:32:44 10° NNW 06:35:28 13° N 06:38:11 10° NNE visible
21 May 10.3 08:19:32 10° NNW 08:24:16 23° NNE 08:28:55 10° E visible
21 May 8.0 10:05:33 10° NNW 10:11:39 76° NE 10:17:32 10° SE visible
